Weather History for Memphis, TN

Change the Weather History Date:

Monday, February 17, 2014

  Actual Average Record
Temperature  
Mean Temperature 56 °F 46 °F  
Max Temperature 70 °F 55 °F 76 °F (1976)
Min Temperature 41 °F 37 °F 5 °F (1900)
Degree Days  
Heating Degree Days 9 19  
Month to date heating degree days 478 357  
Since 1 July heating degree days 2639 2259  
Cooling Degree Days 0 0  
Month to date cooling degree days 0 0  
Year to date cooling degree days 0 1  
Growing Degree Days 7 (Base 50)    
Moisture  
Dew Point 42 °F    
Average Humidity 57    
Maximum Humidity 73    
Minimum Humidity 40    
Precipitation  
Precipitation 0.02 in 0.15 in 1.64 in (1940)
Month to date precipitation 4.79 2.61  
Year to date precipitation 7.95 6.59  
Snow  
Snow 0.00 in 0.00 in 2.30 in (1979)
Month to date snowfall 0.3 0.9  
Since 1 July snowfall 0.3 3.0  
Snow Depth 0.00 in    
Sea Level Pressure  
Sea Level Pressure 30.01 in    
Wind  
Wind Speed 9 mph (South)    
Max Wind Speed 23 mph    
Max Gust Speed 30 mph    
Visibility 10 miles    
Events Rain    
T = Trace of Precipitation, MM = Missing Value Source: NWS Daily Summary

Daily Weather History Graph

Daily Weather History Graph

Search for Another Location

Airport:

Trip Planner

Search our weather history database for the weather conditions in past years. The results will help you decide how hot, cold, wet, or windy it might be!

Date:

Astronomy

Feb. 17, 2014 Rise Set
Actual Time 6:43 AM CST 5:44 PM CST
Civil Twilight 6:17 AM CST 6:10 PM CST
Nautical Twilight 5:48 AM CST 6:40 PM CST
Astronomical Twilight 5:18 AM CST 7:09 PM CST
Moon 8:30 PM CST (2/17) 7:51 AM CST (2/17)
Length of Visible Light 11h 52m
Length of Day
11h 00m
Waning Gibbous, 93% of the Moon is Illuminated
Feb 17
Waning Gibbous
Feb 22
Last Quarter
Mar 1
New
Mar 8
First Quarter
Mar 16
Full

Hourly Weather History & Observations

Time (CST) Temp. Windchill Dew Point Humidity Pressure Visibility Wind Dir Wind Speed Gust Speed Precip Events Conditions
12:54 AM 41.0 °F 36.4 °F 33.1 °F 73% 30.09 in 10.0 mi East 6.9 mph - N/A   Mostly Cloudy
1:54 AM 41.0 °F 36.4 °F 33.1 °F 73% 30.08 in 10.0 mi East 6.9 mph - N/A   Overcast
2:54 AM 42.1 °F 37.7 °F 33.1 °F 70% 30.05 in 10.0 mi East 6.9 mph - N/A   Mostly Cloudy
3:54 AM 44.1 °F 40.8 °F 33.1 °F 65% 30.02 in 10.0 mi East 5.8 mph - N/A   Overcast
4:54 AM 45.0 °F 41.2 °F 33.1 °F 63% 30.02 in 10.0 mi ESE 6.9 mph - N/A   Overcast
5:27 AM 46.4 °F 42.9 °F 32.0 °F 57% 30.01 in 10.0 mi ESE 6.9 mph - N/A   Overcast
5:54 AM 48.9 °F - 32.0 °F 52% 30.00 in 10.0 mi SE 5.8 mph - N/A   Overcast
6:54 AM 50.0 °F - 34.0 °F 54% 29.98 in 10.0 mi SSE 9.2 mph - N/A   Mostly Cloudy
7:18 AM 51.8 °F - 35.6 °F 54% 29.97 in 10.0 mi SSE 9.2 mph - N/A   Mostly Cloudy
7:35 AM 51.8 °F - 37.4 °F 58% 29.97 in 10.0 mi South 11.5 mph - N/A   Mostly Cloudy
7:54 AM 53.1 °F - 39.0 °F 59% 29.98 in 10.0 mi South 12.7 mph - N/A   Overcast
8:54 AM 54.0 °F - 45.0 °F 72% 29.97 in 9.0 mi South 12.7 mph - 0.00 in Rain Light Rain
9:54 AM 59.0 °F - 48.9 °F 69% 29.95 in 10.0 mi South 16.1 mph - 0.00 in   Overcast
10:46 AM 60.8 °F - 53.6 °F 77% 29.95 in 10.0 mi South 15.0 mph - 0.00 in Rain Light Rain
10:54 AM 61.0 °F - 54.0 °F 78% 29.94 in 10.0 mi South 13.8 mph - 0.00 in Rain Light Rain
11:01 AM 60.8 °F - 53.6 °F 77% 29.95 in 10.0 mi South 11.5 mph - 0.00 in Rain Light Rain
11:54 AM 63.0 °F - 55.0 °F 75% 29.91 in 10.0 mi SSW 15.0 mph 28.8 mph 0.00 in   Overcast
12:54 PM 64.9 °F - 55.9 °F 73% 29.90 in 10.0 mi SW 20.7 mph 29.9 mph 0.01 in   Overcast
1:54 PM 66.9 °F - 57.0 °F 70% 29.91 in 10.0 mi SW 16.1 mph 23.0 mph N/A   Mostly Cloudy
2:22 PM 66.2 °F - 55.4 °F 68% 29.93 in 10.0 mi WSW 13.8 mph 23.0 mph N/A   Overcast
2:42 PM 66.2 °F - 55.4 °F 68% 29.95 in 10.0 mi West 11.5 mph - 0.01 in   Mostly Cloudy
2:54 PM 68.0 °F - 55.9 °F 65% 29.96 in 10.0 mi West 9.2 mph 20.7 mph 0.01 in   Mostly Cloudy
3:54 PM 69.1 °F - 44.1 °F 40% 29.99 in 10.0 mi WNW 18.4 mph 23.0 mph N/A   Mostly Cloudy
4:54 PM 66.0 °F - 45.0 °F 47% 30.02 in 10.0 mi WNW 10.4 mph - N/A   Scattered Clouds
5:54 PM 61.0 °F - 37.9 °F 42% 30.04 in 10.0 mi NNW 3.5 mph - N/A   Scattered Clouds
6:54 PM 57.0 °F - 37.9 °F 49% 30.06 in 10.0 mi Calm Calm - N/A   Partly Cloudy
7:54 PM 54.0 °F - 39.0 °F 57% 30.11 in 10.0 mi West 3.5 mph - N/A   Scattered Clouds
8:54 PM 54.0 °F - 37.9 °F 55% 30.14 in 10.0 mi North 5.8 mph - N/A   Partly Cloudy
9:54 PM 50.0 °F - 33.1 °F 52% 30.15 in 10.0 mi Calm Calm - N/A   Partly Cloudy
10:54 PM 46.0 °F - 33.1 °F 61% 30.15 in 10.0 mi Calm Calm - N/A   Partly Cloudy
11:54 PM 44.1 °F - 34.0 °F 68% 30.14 in 10.0 mi Calm Calm - N/A   Clear